Weather History for Provincetown, MA

Change the Weather History Date:

Tuesday, November 1, 2011

  Actual Average Record
Temperature  
Mean Temperature 43 °F -  
Max Temperature 51 °F 53 °F 71 °F (1956)
Min Temperature 35 °F 42 °F 33 °F (2008)
Degree Days  
Heating Degree Days 22    
Moisture  
Dew Point 35 °F    
Average Humidity 66    
Maximum Humidity 81    
Minimum Humidity 54    
Precipitation  
Precipitation 0.00 in - - ()
Sea Level Pressure  
Sea Level Pressure 30.35 in    
Wind  
Wind Speed 8 mph (East)    
Max Wind Speed 16 mph    
Max Gust Speed 22 mph    
Visibility 10 miles    
Events      
Averages and records for this station are not official NWS values.
T = Trace of Precipitation, MM = Missing Value Source: NWS Daily Summary

Daily Weather History Graph

Daily Weather History Graph

Search for Another Location

Airport:

Trip Planner

Search our weather history database for the weather conditions in past years. The results will help you decide how hot, cold, wet, or windy it might be!

Date:

Astronomy

Nov. 01, 2011 Rise Set
Actual Time 7:13 AM EDT 5:35 PM EDT
Civil Twilight 6:44 AM EDT 6:04 PM EDT
Nautical Twilight 6:11 AM EDT 6:37 PM EDT
Astronomical Twilight 5:38 AM EDT 7:09 PM EDT
Moon 12:59 PM EDT (11/1) 11:13 PM EDT (11/1)
Length of Visible Light 11h 19m
Length of Day
10h 21m
Waxing Crescent, 39% of the Moon is Illuminated
Nov 1
Waxing Crescent
Nov 2
First Quarter
Nov 10
Full
Nov 18
Last Quarter
Nov 25
New

Hourly Weather History & Observations

Time (EDT) Temp. Windchill Dew Point Humidity Pressure Visibility Wind Dir Wind Speed Gust Speed Precip Events Conditions
12:15 AM 37.4 °F 33.8 °F 30.2 °F 75% 30.40 in 10.0 mi SE 4.6 mph - N/A   Clear
12:35 AM 41.0 °F 39.0 °F 32.0 °F 70% 30.40 in 10.0 mi SE 3.5 mph - N/A   Clear
12:55 AM 37.4 °F 32.8 °F 30.2 °F 75% 30.39 in 10.0 mi ESE 5.8 mph - N/A   Clear
1:35 AM 35.6 °F 31.7 °F 30.2 °F 81% 30.37 in 10.0 mi ESE 4.6 mph - N/A   Clear
1:55 AM 37.4 °F 34.9 °F 32.0 °F 81% 30.37 in 10.0 mi East 3.5 mph - N/A   Clear
2:15 AM 37.4 °F 34.9 °F 30.2 °F 75% 30.37 in 10.0 mi ESE 3.5 mph - N/A   Clear
2:35 AM 37.4 °F 33.8 °F 32.0 °F 81% 30.37 in 10.0 mi ESE 4.6 mph - N/A   Clear
2:55 AM 39.2 °F 35.0 °F 32.0 °F 75% 30.37 in 10.0 mi ESE 5.8 mph - N/A   Clear
3:15 AM 41.0 °F 36.4 °F 33.8 °F 76% 30.38 in 10.0 mi SE 6.9 mph - N/A   Clear
3:35 AM 39.2 °F 35.9 °F 33.8 °F 81% 30.40 in 10.0 mi SE 4.6 mph - N/A   Clear
3:55 AM 41.0 °F 38.0 °F 33.8 °F 76% 30.39 in 10.0 mi ESE 4.6 mph - N/A   Clear
4:15 AM 41.0 °F 39.0 °F 33.8 °F 76% 30.39 in 10.0 mi ESE 3.5 mph - N/A   Clear
4:35 AM 39.2 °F - 32.0 °F 75% 30.39 in 10.0 mi Calm Calm - N/A   Clear
4:55 AM 37.4 °F 33.8 °F 32.0 °F 81% 30.37 in 10.0 mi East 4.6 mph - N/A   Clear
5:15 AM 39.2 °F 35.0 °F 33.8 °F 81% 30.37 in 10.0 mi East 5.8 mph - N/A   Clear
5:35 AM 39.2 °F 35.9 °F 33.8 °F 81% 30.37 in 10.0 mi East 4.6 mph - N/A   Clear
5:55 AM 42.8 °F 40.1 °F 33.8 °F 70% 30.37 in 10.0 mi East 4.6 mph - N/A   Clear
6:15 AM 41.0 °F 38.0 °F 33.8 °F 76% 30.36 in 10.0 mi East 4.6 mph - N/A   Clear
6:35 AM 42.8 °F 38.0 °F 33.8 °F 70% 30.34 in 10.0 mi ENE 8.1 mph - N/A   Clear
6:55 AM 46.4 °F 42.4 °F 33.8 °F 62% 30.34 in 10.0 mi East 8.1 mph - N/A   Clear
7:15 AM 44.6 °F 40.7 °F 33.8 °F 66% 30.36 in 10.0 mi East 6.9 mph - N/A   Partly Cloudy
7:35 AM 44.6 °F 40.7 °F 33.8 °F 66% 30.36 in 10.0 mi ENE 6.9 mph - N/A   Partly Cloudy
7:55 AM 44.6 °F 39.2 °F 35.6 °F 71% 30.37 in 10.0 mi East 10.4 mph - N/A   Mostly Cloudy
8:15 AM 48.2 °F - 35.6 °F 62% 30.36 in 10.0 mi East 10.4 mph - N/A   Mostly Cloudy
8:35 AM 48.2 °F - 35.6 °F 62% 30.37 in 10.0 mi East 8.1 mph - N/A   Overcast
9:15 AM 48.2 °F - 35.6 °F 62% 30.36 in 10.0 mi East 12.7 mph - N/A   Mostly Cloudy
9:35 AM 48.2 °F - 35.6 °F 62% 30.36 in 10.0 mi ENE 11.5 mph 18.4 mph N/A   Mostly Cloudy
9:55 AM 48.2 °F - 35.6 °F 62% 30.36 in 10.0 mi ENE 12.7 mph - N/A   Partly Cloudy
10:15 AM 48.2 °F - 35.6 °F 62% 30.37 in 10.0 mi East 13.8 mph - N/A   Scattered Clouds
10:35 AM 48.2 °F - 35.6 °F 62% 30.36 in 10.0 mi ENE 11.5 mph 18.4 mph N/A   Scattered Clouds
10:55 AM 48.2 °F - 35.6 °F 62% 30.36 in 10.0 mi ENE 13.8 mph 19.6 mph N/A   Partly Cloudy
11:15 AM 48.2 °F - 35.6 °F 62% 30.36 in 10.0 mi ENE 13.8 mph 19.6 mph N/A   Mostly Cloudy
11:35 AM 50.0 °F - 35.6 °F 58% 30.36 in 10.0 mi ENE 12.7 mph - N/A   Partly Cloudy
11:55 AM 50.0 °F - 35.6 °F 58% 30.36 in 10.0 mi East 11.5 mph 18.4 mph N/A   Scattered Clouds
12:15 PM 50.0 °F - 35.6 °F 58% 30.36 in 10.0 mi ENE 12.7 mph 20.7 mph N/A   Scattered Clouds
12:35 PM 50.0 °F - 35.6 °F 58% 30.34 in 10.0 mi ENE 15.0 mph - N/A   Partly Cloudy
12:55 PM 50.0 °F - 35.6 °F 58% 30.33 in 10.0 mi ENE 13.8 mph 19.6 mph N/A   Partly Cloudy
1:15 PM 51.8 °F - 35.6 °F 54% 30.32 in 10.0 mi ENE 13.8 mph 19.6 mph N/A   Scattered Clouds
1:35 PM 51.8 °F - 35.6 °F 54% 30.32 in 10.0 mi ENE 15.0 mph 18.4 mph N/A   Scattered Clouds
1:55 PM 51.8 °F - 37.4 °F 58% 30.32 in 10.0 mi ENE 15.0 mph 21.9 mph N/A   Scattered Clouds
2:15 PM 51.8 °F - 37.4 °F 58% 30.31 in 10.0 mi ENE 13.8 mph 19.6 mph N/A   Partly Cloudy
2:35 PM 51.8 °F - 37.4 °F 58% 30.31 in 10.0 mi ENE 13.8 mph 21.9 mph N/A   Partly Cloudy
2:55 PM 51.8 °F - 37.4 °F 58% 30.32 in 10.0 mi ENE 15.0 mph - N/A   Mostly Cloudy
3:15 PM 51.8 °F - 35.6 °F 54% 30.32 in 10.0 mi ENE 13.8 mph 21.9 mph N/A   Scattered Clouds
3:35 PM 51.8 °F - 35.6 °F 54% 30.33 in 10.0 mi ENE 13.8 mph 18.4 mph N/A   Partly Cloudy
3:55 PM 50.0 °F - 35.6 °F 58% 30.32 in 10.0 mi ENE 11.5 mph 19.6 mph N/A   Scattered Clouds
4:15 PM 50.0 °F - 35.6 °F 58% 30.32 in 10.0 mi ENE 15.0 mph - N/A   Scattered Clouds
4:35 PM 48.2 °F - 35.6 °F 62% 30.32 in 10.0 mi NE 15.0 mph 19.6 mph N/A   Mostly Cloudy
4:55 PM 48.2 °F - 35.6 °F 62% 30.33 in 10.0 mi NE 11.5 mph - N/A   Mostly Cloudy
5:15 PM 48.2 °F - 37.4 °F 66% 30.32 in 10.0 mi NE 13.8 mph - N/A   Overcast
5:36 PM 48.2 °F - 37.4 °F 66% 30.32 in 10.0 mi NE 16.1 mph 19.6 mph N/A   Overcast
5:55 PM 48.2 °F - 37.4 °F 66% 30.32 in 10.0 mi NE 16.1 mph - N/A   Mostly Cloudy
6:15 PM 48.2 °F - 37.4 °F 66% 30.32 in 10.0 mi ENE 15.0 mph - N/A   Mostly Cloudy
6:35 PM 48.2 °F - 37.4 °F 66% 30.33 in 10.0 mi NE 16.1 mph - N/A   Mostly Cloudy
7:15 PM 48.2 °F - 37.4 °F 66% 30.33 in 10.0 mi NE 12.7 mph 17.3 mph N/A   Overcast
7:35 PM 48.2 °F - 37.4 °F 66% 30.33 in 10.0 mi NE 13.8 mph 19.6 mph N/A   Mostly Cloudy
7:56 PM 48.2 °F - 37.4 °F 66% 30.33 in 10.0 mi NE 11.5 mph 19.6 mph N/A   Mostly Cloudy
8:15 PM 48.2 °F - 35.6 °F 62% 30.33 in 10.0 mi NE 12.7 mph - N/A   Mostly Cloudy
8:35 PM 48.2 °F - 35.6 °F 62% 30.34 in 10.0 mi NE 11.5 mph - N/A   Overcast
8:55 PM 48.2 °F - 35.6 °F 62% 30.34 in 10.0 mi ENE 13.8 mph 19.6 mph N/A   Overcast
9:15 PM 48.2 °F - 35.6 °F 62% 30.34 in 10.0 mi ENE 13.8 mph 19.6 mph N/A   Overcast
9:35 PM 48.2 °F - 35.6 °F 62% 30.34 in 10.0 mi NE 11.5 mph 19.6 mph N/A   Overcast
9:55 PM 48.2 °F - 35.6 °F 62% 30.33 in 10.0 mi NE 12.7 mph 21.9 mph N/A   Mostly Cloudy
10:15 PM 48.2 °F - 35.6 °F 62% 30.33 in 10.0 mi NE 11.5 mph 19.6 mph N/A   Mostly Cloudy
10:35 PM - - - N/A% 30.32 in 10.0 mi NE 15.0 mph - N/A   Partly Cloudy
10:55 PM 48.2 °F - 35.6 °F 62% 30.33 in 10.0 mi NE 12.7 mph 19.6 mph N/A   Partly Cloudy
11:15 PM 48.2 °F - 35.6 °F 62% 30.32 in 10.0 mi NE 11.5 mph 19.6 mph N/A   Clear
11:35 PM 46.4 °F 40.7 °F 35.6 °F 66% 30.32 in 10.0 mi NE 12.7 mph 18.4 mph N/A   Clear
11:55 PM 48.2 °F - 35.6 °F 62% 30.32 in 10.0 mi NE 12.7 mph - N/A   Partly Cloudy